RH
67 68 68 64 55 59 64 66 66 59 53 51 58 59 56 58 55 49 45 45 46 47 49 51 48 50 49 50 48 48 48 47 49 49 50 48 49 54 52 53 54 53 50 51 51 49 50 55 51
66 66 66 60 60 66 65 59 55 60 59 61 54 54 53 57 51 49 44 45 42 44 47 49 48 47 47 49 49 46 48 49 51 55 53 51 51 52 50 52 51 51 51 51 49 50 52 57 61
66 68 71 63 53 64 67 64 64 52 40 47 40 38 44 48 44 43 43 39 41 43 45 47 48 45 44 44 50 49 49 49 48 49 50 50 52 53 52 51 51 44 47 52 49 50 53 54 57
68 64 67 58 51 59 60 62 45 52 45 34 33 34 40 42 44 45 47 41 40 42 42 44 49 47 45 43 48 53 56 56 50 48 50 49 54 58 59 53 49 45 46 50 47 45 49 51 55
62 59 66 62 53 56 50 53 52 50 43 46 34 32 38 44 43 46 47 41 40 43 43 42 46 50 48 44 50 54 54 54 56 55 54 56 55 55 56 53 52 49 47 48 49 47 47 48 46
56 55 67 67 59 50 47 47 41 47 49 46 45 39 37 41 41 46 44 41 42 43 44 43 45 50 51 49 52 54 55 54 56 60 59 60 61 61 59 57 57 59 56 51 51 50 51 48 47
56 58 62 66 60 57 45 47 51 50 49 43 43 49 44 43 42 42 44 43 43 43 43 44 44 48 52 52 56 55 54 54 56 58 60 64 65 65 63 61 60 56 56 59 55 52 54 59 56
54 55 64 60 53 47 48 50 53 53 50 45 42 50 47 45 40 43 43 44 48 43 42 45 46 47 48 50 54 54 56 58 60 61 62 64 66 68 69 71 77 73 62 57 56 57 55 59 60
47 50 50 52 50 40 37 47 51 51 41 43 45 47 45 45 45 45 48 51 51 44 43 45 45 47 48 50 51 52 52 54 57 60 65 69 75 74 77 79 78 75 75 68 65 63 60 60 63
42 41 35 38 34 31 40 51 51 51 45 44 46 46 50 46 47 49 52 50 46 37 40 44 45 45 48 49 51 52 53 54 59 62 66 70 76 78 80 79 75 72 72 74 72 68 70 70 70
39 35 35 37 31 30 40 46 52 50 43 40 41 44 51 50 55 53 56 55 53 48 40 42 45 45 46 50 58 57 55 60 61 63 72 72 77 82 83 82 74 70 77 70 70 71 70 71 77
38 35 34 38 34 32 37 40 43 43 43 40 36 40 47 52 56 57 58 58 58 55 45 48 48 51 52 57 59 58 60 62 63 63 74 79 85 86 85 82 80 81 79 78 81 83 79 80 77
38 36 35 36 35 35 39 44 40 49 53 44 41 38 40 47 53 56 60 60 60 56 54 53 52 54 54 53 56 59 59 61 63 64 68 77 81 87 90 86 83 84 83 81 80 83 84 86 84
36 34 33 36 37 40 42 44 42 51 47 47 46 48 41 49 53 57 61 64 66 64 60 57 57 57 57 57 56 56 57 60 64 65 62 63 69 75 79 85 87 83 84 86 82 82 83 85 83
34 33 31 37 39 41 43 43 48 44 41 40 47 44 45 47 54 54 53 67 71 78 72 66 59 57 52 55 57 57 56 57 61 60 61 61 64 69 69 77 82 86 81 79 84 84 87 82 84
32 31 35 35 40 41 38 48 47 42 42 41 50 57 47 44 52 53 55 65 80 77 84 72 65 66 62 54 55 56 56 61 68 68 68 74 73 71 68 70 75 78 74 77 79 81 81 80 83
36 42 39 38 39 38 40 52 46 42 46 47 51 61 48 41 43 48 51 67 76 76 77 74 71 74 79 64 62 58 57 59 60 67 75 77 79 62 66 71 72 78 74 78 79 75 81 81 79
36 39 38 38 37 37 37 41 42 43 47 49 51 57 51 44 36 38 51 62 67 74 76 71 71 75 80 69 71 68 70 69 73 77 87 78 66 59 61 68 80 86 93 91 82 75 79 82 84
37 41 40 40 38 38 38 42 45 42 45 47 51 46 58 48 35 32 42 48 56 63 71 71 68 72 76 72 72 71 74 74 78 72 65 63 54 57 59 56 75 89 89 89 81 76 77 72 78
37 40 41 41 38 36 36 35 37 42 44 47 52 48 53 56 44 40 44 44 41 46 57 64 68 69 70 68 66 72 70 79 75 61 58 51 55 55 57 52 61 73 76 75 72 70 68 75 80
36 42 47 43 40 37 36 33 38 44 46 49 51 42 43 51 40 43 43 46 44 42 46 51 54 55 57 58 60 66 74 73 63 54 49 50 50 58 69 72 62 66 63 60 58 65 69 73 76
36 39 42 44 40 41 35 35 37 42 46 48 50 40 45 45 36 42 40 46 44 39 39 45 45 45 45 48 62 65 59 62 60 57 53 48 44 60 66 88 66 56 52 51 51 63 67 66 73
34 38 40 42 41 38 36 35 35 39 49 48 45 38 41 37 36 45 45 42 49 36 35 40 39 42 45 45 54 53 54 50 51 55 48 45 40 46 34 35 36 35 36 33 34 43 50 63 78
33 37 37 41 40 44 40 40 38 40 40 46 40 38 41 41 38 42 52 50 50 35 36 38 37 38 41 41 42 43 49 46 48 47 43 39 35 29 31 27 23 20 20 21 26 36 51 63 72
28 38 47 46 43 43 41 41 36 36 39 41 39 37 39 42 40 44 53 53 53 34 35 38 38 37 39 41 42 44 48 47 42 40 35 30 24 25 21 17 18 19 19 18 23 30 39 59 59
30 34 45 47 50 44 42 39 34 32 30 37 40 42 42 43 40 44 52 57 42 35 36 40 43 42 45 47 47 52 52 52 49 45 29 23 25 24 25 20 18 18 17 18 21 26 30 38 51
28 33 35 46 48 44 40 35 33 36 33 36 44 44 45 47 45 49 52 50 34 36 38 42 44 47 48 49 53 55 55 56 51 43 40 34 36 36 38 36 30 23 20 20 24 27 28 29 35
24 28 34 42 47 42 41 37 37 37 35 40 40 49 50 50 51 51 51 42 38 43 46 47 49 50 52 52 54 53 52 54 52 55 60 53 39 38 39 42 41 34 26 26 28 27 24 19 20
26 24 33 38 43 43 43 40 37 36 40 47 50 59 58 63 59 55 50 35 39 45 52 53 53 51 53 54 53 48 43 41 52 63 64 58 50 45 41 41 44 46 44 41 35 32 29 24 22
23 27 27 37 38 39 41 41 39 38 41 48 50 51 54 56 67 53 47 40 44 47 54 57 54 51 61 58 47 43 45 49 50 50 57 55 56 54 45 41 44 44 50 48 43 39 34 25 19